{"data":{"norad_id":53982,"intl_designator":"2022-125U","name":"STARLINK-5120","alt_names":[],"object_type":"PAYLOAD","status":"ACTIVE","operator":null,"country":"US","launch_date":"2022-10-05","launch_site_code":"AFWTR","launch_vehicle":null,"mission":null,"orbit_class":"UNKNOWN","rcs_meters":null,"size_class":null,"mass_kg":null,"dimensions":null,"purposes":["comms"],"wikipedia_slug":null,"has_3d_model":false,"image_url":null,"decayed_at":null,"tle_current":{"epoch":"2026-05-24T16:16:01.228800Z","epoch_age_seconds":113470,"freshness":"FRESH","line1":"1 53982U 22125U   26144.67779200  .00000313  00000+0  37759-4 0  9995","line2":"2 53982  53.2136 233.0342 0001134  86.3248 273.7874 15.08836221200923","mean_motion":15.08836221,"eccentricity":0.0001134,"inclination_deg":53.2136,"raan_deg":233.0342,"arg_perigee_deg":86.3248,"mean_anomaly_deg":273.7874,"bstar":3.7759e-5,"rev_number":20092,"period_min":95.437793708692,"perigee_km":538.97045093342,"apogee_km":540.53942882538,"semimajor_km":6917.8919398794,"source":"CELESTRAK","updated_at":"2026-05-25T13:38:17.620598Z"}}}